FW2726 Weather Reports


time (UTC)temp
C
wind
direction
speed
KPH
gust
KPH
rain 1hr
cm
rain 24hr
cm
rain mn
cm
humidity
%
barometer
mb
20260906223116 15 106 16.1 29.0 0.00 0.03 0.03 86 1016.8
20260906221608 15 102 16.1 24.1 0.00 0.03 0.03 86 1016.7
20260906220109 16 75 16.1 25.7 0.00 0.03 0.03 86 1016.5
20260906214607 16 81 19.3 27.4 0.00 0.03 0.03 85 1016.4
20260906213109 16 83 19.3 27.4 0.00 0.03 0.03 85 1016.8
20260906211606 16 77 17.7 30.6 0.00 0.03 0.03 84 1016.6
20260906210116 16 62 19.3 29.0 0.00 0.03 0.03 83 1016.8
20260906204615 16 84 20.9 29.0 0.00 0.03 0.03 83 1016.8
20260906203108 16 78 17.7 30.6 0.00 0.03 0.03 83 1017.0
20260906201608 16 54 19.3 27.4 0.00 0.03 0.03 83 1017.2
20260906200106 16 89 17.7 25.7 0.00 0.03 0.03 83 1017.4
20260906194609 16 56 19.3 29.0 0.00 0.03 0.03 85 1017.4
20260906193107 16 79 14.5 22.5 0.00 0.03 0.03 84 1017.7
20260906191608 16 82 12.9 24.1 0.00 0.03 0.03 83 1018.0
20260906190104 16 70 14.5 24.1 0.00 0.03 0.03 86 1017.9
20260906184610 16 89 16.1 24.1 0.00 0.03 0.03 89 1017.9
20260906183107 16 50 14.5 27.4 0.00 0.03 0.03 92 1017.7
20260906181716 15 69 16.1 24.1 0.00 0.03 0.03 94 1018.3
20260906180112 15 84 12.9 22.5 0.00 0.03 0.03 95 1018.6
20260906174611 15 43 11.3 19.3 0.00 0.03 0.03 96 1018.9
20260906173108 14 82 11.3 22.5 0.00 0.03 0.03 96 1019.2
20260906171608 14 76 9.7 20.9 0.00 0.03 0.03 96 1019.4
20260906170108 14 73 12.9 20.9 0.00 0.03 0.03 96 1019.6
20260906164620 13 110 12.9 17.7 0.00 0.03 0.03 97 1019.7
20260906163110 13 82 12.9 20.9 0.00 0.03 0.03 96 1019.4
20260906161605 13 108 12.9 19.3 0.00 0.03 0.03 97 1019.3
20260906160115 13 75 11.3 19.3 0.00 0.03 0.03 97 1019.5
20260906154609 13 108 12.9 22.5 0.03 0.03 0.03 97 1019.4
20260906153107 13 108 12.9 22.5 0.03 0.03 0.03 97 1019.4
20260906151608 13 95 16.1 24.1 0.03 0.03 0.03 96 1019.6
20260906150114 13 94 11.3 17.7 0.03 0.03 0.03 96 1019.5
20260906144634 13 103 9.7 19.3 0.00 0.00 0.00 96 1019.5
20260906143119 13 85 9.7 17.7 0.00 0.00 0.00 96 1019.7
20260906141608 13 98 8.0 14.5 0.00 0.00 0.00 96 1019.6
20260906140126 13 102 6.4 16.1 0.00 0.00 0.00 96 1019.6
20260906134614 13 110 8.0 14.5 0.00 0.00 0.00 96 1019.7
20260906133126 13 97 6.4 16.1 0.00 0.00 0.00 96 1019.6
20260906131627 13 62 8.0 16.1 0.00 0.00 0.00 96 1019.6
20260906130127 13 90 9.7 16.1 0.00 0.00 0.00 96 1019.4
20260906124631 13 87 6.4 16.1 0.00 0.00 0.00 96 1019.5
20260906123111 13 69 8.0 17.7 0.00 0.00 0.00 96 1019.4
20260906121610 13 62 6.4 14.5 0.00 0.00 0.00 95 1019.5
20260906120131 13 41 9.7 16.1 0.00 0.00 0.00 95 1019.6
20260906114609 13 42 9.7 16.1 0.00 0.00 0.00 95 1019.6
20260906113109 13 34 6.4 14.5 0.00 0.00 0.00 95 1020.1
20260906111607 13 34 6.4 12.9 0.00 0.00 0.00 95 1020.2
20260906110118 13 28 6.4 11.3 0.00 0.00 0.00 95 1020.4
20260906104609 13 26 6.4 11.3 0.00 0.00 0.00 95 1020.4
20260906103106 13 32 4.8 9.7 0.00 0.00 0.00 95 1020.4
20260906101605 13 27 3.2 6.4 0.00 0.00 0.00 95 1020.7
20260906100114 13 23 3.2 4.8 0.00 0.00 0.00 94 1020.6
20260906094606 13 48 1.6 6.4 0.00 0.00 0.00 94 1020.5
20260906093119 13 48 1.6 4.8 0.00 0.00 0.00 94 1020.4
20260906091609 13 48 0.0 4.8 0.00 0.00 0.00 94 1020.4
20260906090137 13 32 3.2 6.4 0.00 0.00 0.00 94 1020.1
20260906084606 13 45 3.2 8.0 0.00 0.00 0.00 94 1020.3
20260906083105 13 58 3.2 6.4 0.00 0.00 0.00 94 1020.5
20260906081604 13 38 3.2 6.4 0.00 0.00 0.00 93 1020.5
20260906080106 13 27 1.6 6.4 0.00 0.00 0.00 93 1020.6
20260906074606 13 0 0.0 0.0 0.00 0.00 0.00 93 1020.9
20260906073110 13 0 0.0 4.8 0.00 0.00 0.00 93 1021.0
20260906071611 13 58 3.2 8.0 0.00 0.00 0.00 93 1020.9
20260906070110 13 34 3.2 6.4 0.00 0.00 0.00 93 1021.1
20260906064607 13 47 3.2 8.0 0.00 0.00 0.00 93 1020.9
20260906063106 13 57 1.6 6.4 0.00 0.00 0.00 93 1020.9
20260906061607 13 0 0.0 6.4 0.00 0.00 0.00 93 1021.1
20260906060111 13 48 3.2 8.0 0.00 0.00 0.00 93 1020.9
20260906054624 13 60 6.4 9.7 0.00 0.03 0.00 93 1021.0
20260906053106 13 53 4.8 12.9 0.00 0.03 0.00 92 1020.9
20260906051606 13 55 6.4 14.5 0.00 0.03 0.00 92 1020.8
20260906050135 13 64 8.0 14.5 0.00 0.03 0.00 92 1020.6
20260906044606 13 65 9.7 19.3 0.00 0.51 0.00 92 1020.5
20260906043111 13 50 8.0 14.5 0.00 0.51 0.00 92 1020.5
20260906041605 13 65 9.7 16.1 0.00 0.51 0.00 92 1020.4
20260906040117 13 43 8.0 14.5 0.00 0.51 0.00 92 1020.4
20260906034611 13 41 8.0 16.1 0.00 0.89 0.00 92 1020.3
20260906033106 13 62 8.0 16.1 0.00 0.89 0.00 92 1020.2
20260906031604 13 64 8.0 12.9 0.00 0.89 0.00 92 1020.1
20260906030135 13 58 6.4 14.5 0.00 0.89 0.00 92 1020.1
20260906024609 13 56 8.0 17.7 0.00 0.97 0.00 91 1020.0
20260906023130 13 43 9.7 16.1 0.00 0.97 0.00 90 1019.7
20260906021614 14 34 6.4 17.7 0.00 0.97 0.00 90 1019.7
20260906020113 14 25 9.7 20.9 0.00 0.97 0.00 89 1019.6
20260906014630 15 43 11.3 19.3 0.00 0.99 0.00 89 1019.5
20260906013108 15 31 8.0 19.3 0.00 0.99 0.00 89 1019.4
20260906011607 15 47 6.4 19.3 0.00 0.99 0.00 88 1019.2
20260906010105 15 41 11.3 19.3 0.00 0.99 0.00 88 1019.1
20260906004606 15 33 11.3 19.3 0.00 1.07 0.00 87 1019.2
20260906003110 16 50 9.7 19.3 0.00 1.07 0.00 86 1019.1
20260906001606 16 60 6.4 20.9 0.00 1.07 0.00 85 1019.2
20260906000105 16 35 11.3 17.7 0.00 1.07 0.00 85 1019.1
20260905234618 16 46 12.9 20.9 0.00 1.07 0.00 84 1018.9
20260905233104 16 16 8.0 16.1 0.00 1.07 0.00 84 1018.9
20260905231624 16 31 9.7 22.5 0.00 1.07 0.00 83 1018.7
20260905230108 16 21 9.7 17.7 0.00 1.07 0.00 83 1018.6
20260905224610 17 43 9.7 16.1 0.00 1.07 0.00 82 1018.8